Regional Weather Roundup
Issued by NWS Midland/Odessa, TX

Skip options and go directly to product.
Home | Oldest Version | Previous Version | Current Version | All | Graphics & Text | Save Text | Print | Product List | Glossary On

Skip product version selection by date and time.   
902
ASUS44 KMAF 202010
RWRMAF
MIDLAND AREA WEATHER ROUNDUP
NATIONAL WEATHER SERVICE MIDLAND TX
300 PM CDT SAT SEP 20 2014

...IN SOUTHWEST TEXAS AND SOUTHEAST NEW MEXICO...

CITY           SKY/WX    TMP DP  RH WIND       PRES   REMARKS
ALPINE         CLOUDY    66  65  94 NE9       30.18R THUNDER
ANDREWS        FAIR      75  68  77 CALM      30.03F
ARTESIA        NOT AVBL
BIG SPRING     CLOUDY    79  71  76 E7        30.02F
CARLSBAD       MOSUNNY   80  73  79 NW6       30.03F
DRYDEN           N/A     92  69  47 E13       29.93F
FORT STOCKTON  MOSUNNY   85  69  58 N9        30.00F
GUAD PASS      MOSUNNY   73  64  73 NE18        N/A
HOBBS          PTSUNNY   81  66  61 N8        30.06F
MARFA          PTSUNNY   70  63  78 SE7       30.13S THUNDER
MIDLAND AIRPK  NOT AVBL
MIDLAND INTL   PTSUNNY   79  70  74 SE5       30.00F
ODESSA         PTSUNNY   78  70  76 E5        30.01F
PECOS          MOSUNNY   84  69  60 N9        29.97F
PRESIDIO       FAIR      92  65  40 N13G21    29.94F
SEMINOLE       PTSUNNY   79  67  66 E5        30.04F
SNYDER         CLOUDY    73  71  91 SE7       30.03F
WINK           PTSUNNY   83  71  67 NE9       29.98F
$$
...OTHER STATIONS IN TEXAS...

CITY           SKY/WX    TMP DP  RH WIND       PRES   REMARKS
ABILENE        CLOUDY    83  69  62 SE12      29.99F
AMARILLO       MOSUNNY   80  63  55 S10       30.10F
AUSTIN         PTSUNNY   86  71  60 E8        29.93F
BROWNSVILLE    CLOUDY    80  77  90 W3        29.87F
CORPUS CHRISTI PTSUNNY   87  74  64 E14       29.88F
DALLAS FTW     PTSUNNY   91  65  41 S14       29.97F
DEL RIO        PTSUNNY   87  73  62 SE10      29.89F
EL PASO        MOSUNNY   86  62  44 VRB3      30.03F
HOUSTON INT    MOSUNNY   87  72  60 E8        29.93F
LUBBOCK        LGT RAIN  74  67  78 SE8       30.05F
SAN ANGELO     PTSUNNY   83  71  67 E7        29.96F
SAN ANTONIO    PTSUNNY   84  72  67 NE10      29.93F
WACO           PTSUNNY   87  70  56 E8        29.96F
WICHITA FALLS  NOT AVBL
$$
...OTHER LOCATIONS IN NEW MEXICO...

CITY           SKY/WX    TMP DP  RH WIND       PRES   REMARKS
ALAMAGORDO     MOSUNNY   82  64  54 W5        30.06F
ALBUQUERQUE    MOSUNNY   83  54  36 S5        30.13F
CANNON AFB     CLOUDY    75  60  58 E6        30.13F
CLOVIS           N/A     75  64  69 E10       30.14F
HOLLOMAN AFB   MOSUNNY   82  63  52 VRB3      30.04F
ROSWELL        MOSUNNY   82  65  56 NW3       30.06F
RUIDOSO        PTSUNNY   73  57  56 SE12      30.27F
SANTA FE       SUNNY     85  41  21 MISG      30.18F
TRUTH OR CONSE SUNNY     84  60  44 NE7       30.09F
TUCUMCARI      SUNNY     85  60  42 VRB3      30.09F
$$

USA.gov is the U.S. government's official web portal to all federal, state and local government web resources and services.